Time,TemperatureF,DewpointF,PressureIn,WindDirection,WindDirectionDegrees,WindSpeedMPH,WindSpeedGustMPH,Humidity,HourlyPrecipIn,Conditions,Clouds,dailyrainin,SolarRadiationWatts/m^2,SoftwareType,DateUTC
2013-07-16 12:22:00,68.0,50.0,-100.00,SW,231,5.0,12.0,52,-99.99,,,0.00,811.000000,,2013-07-16 18:22:00,
2013-07-16 12:32:00,68.0,50.0,-100.00,SW,231,5.0,12.0,52,-99.99,,,0.00,811.000000,,2013-07-16 18:32:00,
2013-07-16 12:43:00,68.0,50.0,-100.00,SW,231,5.0,12.0,52,-99.99,,,0.00,811.000000,,2013-07-16 18:43:00,
2013-07-16 12:52:00,68.0,50.0,-100.00,SW,231,5.0,12.0,52,-99.99,,,0.00,811.000000,,2013-07-16 18:52:00,
2013-07-16 13:22:00,68.0,49.0,-100.00,SW,220,6.0,13.0,51,0.00,,,0.00,542.000000,,2013-07-16 19:22:00,
2013-07-16 13:32:00,68.0,49.0,-100.00,SW,220,6.0,13.0,51,0.00,,,0.00,542.000000,,2013-07-16 19:32:00,
2013-07-16 13:43:00,68.0,49.0,-100.00,SW,220,6.0,13.0,51,0.00,,,0.00,542.000000,,2013-07-16 19:43:00,
2013-07-16 13:52:00,68.0,49.0,-100.00,SW,220,6.0,13.0,51,0.00,,,0.00,542.000000,,2013-07-16 19:52:00,
2013-07-16 14:22:00,68.0,51.0,-100.00,SE,142,5.0,12.0,54,0.00,,,0.00,467.000000,,2013-07-16 20:22:00,
2013-07-16 14:32:00,68.0,51.0,-100.00,SE,142,5.0,12.0,54,0.00,,,0.00,467.000000,,2013-07-16 20:32:00,
2013-07-16 14:43:00,68.0,51.0,-100.00,SE,142,5.0,12.0,54,0.00,,,0.00,467.000000,,2013-07-16 20:43:00,
2013-07-16 14:52:00,68.0,51.0,-100.00,SE,142,5.0,12.0,54,0.00,,,0.00,467.000000,,2013-07-16 20:52:00,
2013-07-16 16:33:00,64.0,52.0,-100.00,NW,320,6.0,9.0,65,0.00,,,0.18,261.000000,,2013-07-16 22:33:00,
2013-07-16 16:43:00,64.0,52.0,-100.00,NW,320,6.0,9.0,65,0.00,,,0.18,261.000000,,2013-07-16 22:43:00,
2013-07-16 16:52:00,64.0,52.0,-100.00,NW,320,6.0,9.0,65,0.00,,,0.18,261.000000,,2013-07-16 22:52:00,
2013-07-16 17:32:00,73.0,53.0,-100.00,SSW,211,7.0,10.0,49,0.00,,,0.18,821.000000,,2013-07-16 23:32:00,
2013-07-16 17:43:00,73.0,53.0,-100.00,SSW,211,7.0,10.0,49,0.00,,,0.18,821.000000,,2013-07-16 23:43:00,
2013-07-16 17:52:00,73.0,53.0,-100.00,SSW,211,7.0,10.0,49,0.00,,,0.18,821.000000,,2013-07-16 23:52:00,
2013-07-16 18:22:00,64.0,54.0,-100.00,North,2,3.0,13.0,70,0.07,,,0.25,203.000000,,2013-07-17 00:22:00,
2013-07-16 18:33:00,64.0,54.0,-100.00,North,2,3.0,13.0,70,0.07,,,0.25,203.000000,,2013-07-17 00:33:00,
2013-07-16 18:42:00,64.0,54.0,-100.00,North,2,3.0,13.0,70,0.07,,,0.25,203.000000,,2013-07-17 00:42:00,
2013-07-16 18:52:00,64.0,54.0,-100.00,North,2,3.0,13.0,70,0.07,,,0.25,203.000000,,2013-07-17 00:52:00,
2013-07-16 19:22:00,73.0,50.0,-100.00,NW,320,1.0,4.0,44,0.00,,,0.25,402.000000,,2013-07-17 01:22:00,
2013-07-16 19:32:00,73.0,50.0,-100.00,NW,320,1.0,4.0,44,0.00,,,0.25,402.000000,,2013-07-17 01:32:00,
2013-07-16 19:43:00,73.0,50.0,-100.00,NW,320,1.0,4.0,44,0.00,,,0.25,402.000000,,2013-07-17 01:43:00,
2013-07-16 19:52:00,73.0,50.0,-100.00,NW,320,1.0,4.0,44,0.00,,,0.25,402.000000,,2013-07-17 01:52:00,
2013-07-16 20:22:00,66.0,45.0,-100.00,NW,304,4.0,14.0,46,0.00,,,0.25,184.000000,,2013-07-17 02:22:00,
2013-07-16 20:32:00,66.0,45.0,-100.00,NW,304,4.0,14.0,46,0.00,,,0.25,184.000000,,2013-07-17 02:32:00,
2013-07-16 20:43:00,66.0,45.0,-100.00,NW,304,4.0,14.0,46,0.00,,,0.25,184.000000,,2013-07-17 02:43:00,
2013-07-16 20:53:00,66.0,45.0,-100.00,NW,304,4.0,14.0,46,0.00,,,0.25,184.000000,,2013-07-17 02:53:00,
2013-07-16 21:22:00,61.0,46.0,-100.00,NE,55,6.0,9.0,57,0.02,,,0.27,5.000000,,2013-07-17 03:22:00,
2013-07-16 21:32:00,61.0,46.0,-100.00,NE,55,6.0,9.0,57,0.02,,,0.27,5.000000,,2013-07-17 03:32:00,
2013-07-16 21:43:00,61.0,46.0,-100.00,NE,55,6.0,9.0,57,0.02,,,0.27,5.000000,,2013-07-17 03:43:00,
2013-07-16 21:53:00,61.0,46.0,-100.00,NE,55,6.0,9.0,57,0.02,,,0.27,5.000000,,2013-07-17 03:53:00,
2013-07-16 22:22:00,58.0,47.0,-100.00,WNW,299,4.0,15.0,66,0.04,,,-99.99,1.000000,,2013-07-17 04:22:00,
2013-07-16 22:32:00,58.0,47.0,-100.00,WNW,299,4.0,15.0,66,0.04,,,-99.99,1.000000,,2013-07-17 04:32:00,
2013-07-16 22:43:00,58.0,47.0,-100.00,WNW,299,4.0,15.0,66,0.04,,,-99.99,1.000000,,2013-07-17 04:43:00,
2013-07-16 22:53:00,58.0,47.0,-100.00,WNW,299,4.0,15.0,66,0.04,,,-99.99,1.000000,,2013-07-17 04:53:00,
2013-07-16 23:22:00,58.0,45.0,-100.00,ENE,77,5.0,10.0,62,0.00,,,-99.99,0.000000,,2013-07-17 05:22:00,
2013-07-16 23:32:00,58.0,45.0,-100.00,ENE,77,5.0,10.0,62,0.00,,,-99.99,0.000000,,2013-07-17 05:32:00,
2013-07-16 23:43:00,58.0,45.0,-100.00,ENE,77,5.0,10.0,62,0.00,,,-99.99,0.000000,,2013-07-17 05:43:00,
2013-07-16 23:52:00,58.0,45.0,-100.00,ENE,77,5.0,10.0,62,0.00,,,-99.99,0.000000,,2013-07-17 05:52:00,